PULSAR-0 (64541 NORAD) Tracking and Keplerian Element Data

This shows tracking and keplerian element data for the satellite.

Feedback or suggestion? Click here.




ElementValue
Catalog64541
NamePULSAR-0
Epoch Orbit2759
Epoch Day353.84989376
Epoch Year2025
RAAN105.5847
Inclination97.457
Eccentricity0.0004644
Argument of Perigee90.6271
Mean Anonmoly269.5496
Mean Motion15.1881405
Decay Rate2.816E-05
L11 64541U 25135P 25353.84989376 .00002816 00000+0 13854-3 0 9998
L22 64541 97.4570 105.5847 0004644 90.6271 269.5496 15.18814050 27594



Live tracking and technical data element details for PULSAR-0 (NORAD 64541). PULSAR-0 can be tracked NOW for your location showing map with azimuth and elevation plus other details from your city location.







IsCatalogInMostPopularTable: catalog: 64541, numindb: 4
Update: records affected: 1



GetName: 64541 PULSAR-0

Hit Count: updated at: Tue, 21 Apr 2026 19:05:13 GMT